Home   Weather   Osorno   Past weeks

Flag for Chile Past Weather in Osorno, Chile — Yesterday and Last 2 Weeks

Now
48 °F

Clear.


Feels Like: 48 °F
Forecast: 43 / 59 °F
Wind: 1 mph from North

Location: Puerto Montt Airport

Current Time: Dec 4, 2016 at 3:26:41 am

Latest Report: Dec 4, 2016 at 3:00 am


Visibility: 10 mi

Pressure: 29.74 "Hg

Humidity: 100%

Dew Point: 48 °F

Location of OsornoLocation

Past Weather in Osorno — Graph

°F

Osorno Temperature Yesterday

Maximum temperature yesterday: 75 °F (at 3:00 pm)
Minimum temperature yesterday: 41 °F (at 7:00 am)
Average temperature yesterday: 59 °F

High & Low Weather Summary for the Past Weeks

 TemperatureHumidityPressure
High79 °F (Nov 21, 4:00 pm)100% (Nov 23, 5:00 am)30.33 "Hg (Nov 23, 5:00 am)
Low41 °F (Dec 3, 7:00 am)25% (Nov 22, 4:00 pm)29.77 "Hg (Dec 4, 1:00 am)
Average58 °F76%30.03 "Hg
* Reported Nov 19 2:00 am — Dec 4 2:00 am, Osorno, Weather by CustomWeather, © 2016

Note: Actual official high and low records may vary slightly from our data, if they occured in-between our weather recording intervals... More about our weather records

Advertising

Osorno Weather History for the Previous 24 Hours

Scroll right to see more
 ConditionsComfort  
Time TempWeatherWind HumidityBarometerVisibility
2:00 am
Sun, Dec 4
52 °FClear.No wind94%29.77 "Hg10 mi
1:00 am54 °FClear.No wind94%29.77 "Hg10 mi
12:00 am54 °FClear.2 mph94%29.80 "Hg10 mi
11:00 pm
Sat, Dec 3
55 °FClear.No wind77%29.83 "Hg10 mi
10:00 pm59 °FClear.3 mph68%29.83 "Hg10 mi
9:00 pm63 °FSunny.5 mph56%29.83 "Hg10 mi
8:00 pm66 °FPassing clouds.8 mph49%29.83 "HgN/A
7:00 pm70 °FPassing clouds.8 mph53%29.83 "HgN/A
6:00 pm72 °FSunny.9 mph53%29.86 "Hg10 mi
5:00 pm72 °FPassing clouds.8 mph53%29.86 "HgN/A
4:00 pm72 °FSunny.9 mph50%29.86 "Hg10 mi
3:00 pm75 °FSunny.5 mph31%29.86 "Hg10 mi
2:00 pm73 °FSunny.6 mph33%29.89 "Hg10 mi
1:00 pm70 °FSunny.6 mph38%29.92 "Hg10 mi
12:00 pm68 °FSunny.3 mph46%29.92 "Hg10 mi
11:00 am64 °FSunny.2 mph52%29.92 "Hg10 mi
9:00 am54 °FFog.3 mph88%29.95 "Hg2 mi
8:00 am48 °FFog.1 mph94%29.95 "Hg1 mi
7:00 am41 °FFog.No wind100%29.95 "Hg1 mi
6:00 am43 °FPassing clouds.No wind93%29.98 "Hg0 mi
5:00 am43 °FFog.No wind93%29.98 "Hg5 mi
4:00 am45 °FClear.No wind93%29.98 "Hg10 mi
3:00 am46 °FClear.No wind93%30.01 "Hg10 mi
Weather by CustomWeather, © 2016

See weather overviewHow to use our weather pages